Effective Sunday, March 17, 2024, the National Weather Service National Data Buoy Center will discontinue its Dial-A-Buoy Interactive Voice Response system. For more information, see Service Change Notice 24-06 (PDF).

Station 51002 (LLNR 28005.1) - SOUTHWEST HAWAII - 215NM SSW of Hilo, HI Image indicating link to RSS feed of recent meteorological observations for station 51002


Conditions at 51002 as of
(10:10 pm HAST on 02/28/2024)
0810 GMT on 02/29/2024:
     

Click on the graph icon in the table below to see a time series plot of the last five days of that observation.

5-day plot - Wind Direction Wind Direction (WDIR): E ( 80 deg true )
5-day plot - Wind Speed Wind Speed (WSPD): 17.5 kts
5-day plot - Wind Gust Wind Gust (GST): 21.4 kts
5-day plot - Atmospheric Pressure Atmospheric Pressure (PRES):30.06 in
5-day plot - Air Temperature Air Temperature (ATMP): 75.4 °F
5-day plot - Dew Point Dew Point (DEWP): 70.0 °F
5-day plot - Wind Speed at 10 Meters Wind Speed at 10 meters (WSPD10M): 19.4 kts
5-day plot - Wind Speed at 20 Meters Wind Speed at 20 meters (WSPD20M): 19.4 kts
5-day plot -  Wind Speed, Wind Gust and Atmospheric Pressure Combined plot of Wind Speed, Gust, and Air Pressure
Supplemental Measurements
Highest 1-minute Wind Speed
Time (HAST)5-day plot - 1-Minute Wind Speed WSPD 5-day plot - 1-Minute Wind Direction WDIR
10:02 pm 19.4 kts-
Previous observations
TIME
(HAST)
5-day plot - Wind Direction
WDIR
 
5-day plot - Wind Speed
WSPD
kts
5-day plot - Wind Gust
GST
kts
5-day plot - Wave Height
WVHT
ft
5-day plot - Dominant Wave Period
DPD
sec
5-day plot - Average Wave Period
APD
sec
5-day plot - Mean Wave Direction
MWD
 
5-day plot - Atmospheric Pressure
PRES
in
5-day plot - Pressure Tendency
PTDY
in
5-day plot - Air Temperature
ATMP
°F
5-day plot - Water Temperature
WTMP
°F
5-day plot - Dew Point
DEWP
°F
5-day plot - Salinity
SAL
psu
5-day plot - Visibility
VIS
nmi
5-day plot - Tide (above MLLW)
TIDE
ft
2024-02-28 10:00 pm E 17.5 21.4----30.06+0.05 75.2- 69.4---
2024-02-28 09:50 pm E 17.5 21.4----30.06- 75.4- 69.8---
2024-02-28 09:40 pmENE 17.5 21.4----30.06- 75.4- 69.6---
2024-02-28 09:30 pm E 17.5 21.4----30.06- 75.4- 68.9---
2024-02-28 09:20 pm E 17.5 21.4----30.06- 75.4- 69.1---
2024-02-28 09:10 pm E 17.5 21.4----30.06- 75.4- 68.9---
2024-02-28 09:00 pmENE 17.5 21.4----30.05+0.06 75.4- 68.7---
2024-02-28 08:50 pm E 17.5 23.3----30.05- 75.4- 68.5---
2024-02-28 08:40 pm E 17.5 23.3----30.04- 75.4- 68.7---
2024-02-28 08:30 pm E 17.5 23.3----30.04- 75.4- 68.7---
2024-02-28 08:20 pm E 17.5 23.3----30.03- 75.4- 68.4---
2024-02-28 08:10 pm E 19.4 23.3----30.02- 75.2- 68.5---
2024-02-28 08:00 pm E 19.4 23.3----30.02+0.05 75.4- 68.9---
2024-02-28 07:50 pmENE 19.4 23.3----30.02- 75.4- 68.7---
2024-02-28 07:40 pm E 19.4 25.3----30.01- 75.2- 68.4---
2024-02-28 07:30 pmENE 19.4 25.3----30.01- 75.2- 68.7---
2024-02-28 07:20 pm E 19.4 23.3----30.01- 75.2- 68.7---
2024-02-28 07:10 pm E 19.4 23.3----30.02- 75.2- 68.7---
2024-02-28 07:00 pm E 19.4 23.3----30.01+0.04 75.2- 68.9---
2024-02-28 06:50 pm E 19.4 25.3----30.01- 75.4- 68.7---
2024-02-28 06:40 pmENE 19.4 23.3----30.01- 75.4- 68.7---
2024-02-28 06:30 pmENE 19.4 23.3----30.01- 75.4- 68.2---
2024-02-28 06:20 pmENE 19.4 23.3----30.01- 75.4- 68.5---
2024-02-28 06:10 pmENE 19.4 23.3----30.00- 75.4- 68.4---
2024-02-28 06:00 pmENE 19.4 25.3----30.00+0.04 75.4- 68.4---
2024-02-28 05:50 pmENE 19.4 25.3----29.99- 75.4- 68.9---
2024-02-28 05:40 pmENE 19.4 25.3----29.98- 75.4- 69.4---
2024-02-28 05:30 pmENE 21.4 25.3----29.98- 75.4- 69.1---
2024-02-28 05:20 pmENE 19.4 25.3----29.98- 75.2- 69.3---
2024-02-28 05:10 pmENE 19.4 25.3----29.98- 75.0- 70.2---
2024-02-28 05:00 pmENE 21.4 27.2----29.98-0.01 74.8- 69.8---
2024-02-28 04:50 pmENE 21.4 25.3----29.97- 74.8- 70.2---
2024-02-28 04:40 pm E 21.4 27.2----29.97- 74.7- 70.2---
2024-02-28 04:30 pm E 21.4 25.3----29.97- 74.8- 70.5---
2024-02-28 04:20 pm E 21.4 27.2----29.97- 75.0- 70.3---
2024-02-28 04:10 pm E 21.4 25.3----29.97- 75.2- 69.6---
2024-02-28 04:00 pmENE 21.4 27.2----29.96-0.05 75.0- 69.6---
2024-02-28 03:50 pm E 21.4 27.2----29.96- 74.8- 69.8---
2024-02-28 03:40 pmENE 21.4 27.2----29.96- 74.8- 69.8---
2024-02-28 03:30 pmENE 21.4 25.3----29.96- 75.0- 70.2---
2024-02-28 03:20 pmENE 21.4 25.3----29.97- 75.0- 69.4---
2024-02-28 03:10 pmENE 21.4 25.3----29.97- 75.0- 69.6---
2024-02-28 03:00 pmENE 21.4 27.2----29.96-0.08 74.8- 69.8---
2024-02-28 02:50 pmENE 21.4 27.2----29.96- 75.0- 70.0---
2024-02-28 02:40 pmENE 21.4 27.2----29.96- 75.0- 70.0---
2024-02-28 02:30 pm E 21.4 27.2----29.97- 75.0- 69.8---
2024-02-28 02:20 pm E 21.4 27.2----29.97- 75.0- 70.2---
2024-02-28 02:10 pmENE 19.4 27.2----29.98- 75.2- 70.3---
2024-02-28 02:00 pm E 21.4 25.3----29.98-0.08 75.2- 70.0---
2024-02-28 01:50 pmENE 21.4 27.2----29.98- 75.2- 70.2---
2024-02-28 01:40 pmENE 21.4 25.3----29.98- 75.2- 70.0---
2024-02-28 01:20 pmENE 19.4 25.3----30.00- 75.4- 70.9---
2024-02-28 01:10 pm E 19.4 23.3----30.01- 75.6- 70.5---
2024-02-28 01:00 pmENE 19.4 23.3----30.02-0.05 75.4- 70.0---
2024-02-28 12:50 pmENE 19.4 25.3----30.02- 75.4- 69.4---
2024-02-28 12:40 pm E 19.4 25.3----30.02- 75.4- 70.0---
2024-02-28 12:30 pmENE 19.4 27.2----30.03- 75.4- 69.6---
2024-02-28 12:20 pm E 19.4 23.3----30.03- 75.6- 70.2---
2024-02-28 12:10 pmENE 19.4 23.3----30.04- 75.4- 70.0---
2024-02-28 12:00 pm E 19.4 23.3----30.04-0.01 75.6- 70.2---
2024-02-28 11:50 amENE 19.4 25.3----30.04- 75.4- 69.8---
2024-02-28 11:40 am E 19.4 25.3----30.05- 75.6- 70.0---
2024-02-28 11:30 am E 19.4 25.3----30.05- 75.6- 70.2---
2024-02-28 11:20 am E 19.4 23.3----30.05- 75.4- 69.6---
2024-02-28 11:10 am E 19.4 23.3----30.06- 75.6- 70.0---
2024-02-28 11:00 am E 19.4 25.3----30.06+0.01 75.4- 70.0---
2024-02-28 10:50 am E 19.4 23.3----30.06- 75.6- 70.2---
2024-02-28 10:40 amENE 17.5 25.3----30.07- 75.6- 70.5---
2024-02-28 10:30 am E 19.4 23.3----30.07- 75.4- 70.0---
2024-02-28 10:20 am E 19.4 23.3----30.07- 75.6- 70.2---
2024-02-28 10:10 am E 19.4 23.3----30.07- 75.6- 70.3---
2024-02-28 10:00 am E 19.4 25.3----30.07+0.03 75.4- 69.4---
2024-02-28 09:50 amENE 19.4 25.3----30.07- 75.4- 70.0---
2024-02-28 09:40 amENE 19.4 23.3----30.07- 75.4- 70.0---
2024-02-28 09:30 amENE 19.4 25.3----30.07- 75.4- 70.0---
2024-02-28 09:20 amENE 21.4 25.3----30.06- 75.4- 69.8---
2024-02-28 09:10 amENE 19.4 23.3----30.06- 75.2- 69.4---
2024-02-28 09:00 amENE 19.4 25.3----30.06+0.04 75.2- 69.6---
2024-02-28 08:50 amENE 21.4 25.3----30.05- 75.2- 69.6---
2024-02-28 08:40 amENE 21.4 25.3----30.05- 75.2- 69.1---
2024-02-28 08:30 amENE 21.4 25.3----30.05- 75.2- 69.8---
2024-02-28 08:20 amENE 21.4 27.2----30.05- 75.2- 70.2---
2024-02-28 08:10 am E 19.4 25.3----30.05- 75.2- 69.6---
2024-02-28 08:00 am E 19.4 25.3----30.05+0.04 75.0- 69.8---
2024-02-28 07:50 am E 19.4 23.3----30.05- 75.2- 70.0---
2024-02-28 07:40 amENE 19.4 25.3----30.04- 75.0- 69.8---
2024-02-28 07:30 am E 19.4 25.3----30.04- 75.0- 70.0---
2024-02-28 07:20 am E 19.4 25.3----30.04- 75.0- 69.8---
2024-02-28 07:10 amENE 19.4 25.3----30.04- 75.0- 70.3---
2024-02-28 07:00 amENE 21.4 25.3----30.03+0.03 75.0- 70.3---
2024-02-28 06:50 amENE 19.4 25.3----30.03- 75.0- 70.5---
2024-02-28 06:40 am E 19.4 27.2----30.03- 75.0- 70.3---
2024-02-28 06:30 amENE 19.4 25.3----30.02- 75.0- 70.5---
2024-02-28 06:20 am E 19.4 23.3----30.02- 75.0- 70.2---
2024-02-28 06:10 am E 19.4 23.3----30.02- 74.8- 69.8---
2024-02-28 06:00 am E 19.4 23.3----30.01-0.01 74.8- 70.2---
2024-02-28 05:50 am E 19.4 23.3----30.01- 74.8- 70.2---
2024-02-28 05:40 am E 19.4 23.3----30.01- 75.0- 70.2---
2024-02-28 05:30 am E 19.4 25.3----30.01- 74.8- 70.0---
2024-02-28 05:20 am E 19.4 25.3----30.01- 74.8- 70.2---
2024-02-28 05:10 am E 19.4 23.3----30.01- 74.8- 69.8---
2024-02-28 05:00 am E 19.4 23.3----30.01-0.04 74.8- 69.8---
2024-02-28 04:50 amENE 19.4 25.3----30.00- 74.8- 70.0---
2024-02-28 04:40 am E 19.4 23.3----30.00- 74.8- 70.0---
2024-02-28 04:30 am E 19.4 23.3----30.00- 74.8- 69.8---
2024-02-28 04:20 amENE 19.4 25.3----30.00- 74.8- 69.6---
2024-02-28 04:10 am E 21.4 25.3----30.00- 74.8- 69.6---
2024-02-28 04:00 amENE 19.4 25.3----30.01-0.06 74.8- 70.2---
2024-02-28 03:50 am E 21.4 25.3----30.01- 74.8- 70.0---
2024-02-28 03:40 am E 19.4 25.3----30.01- 75.0- 70.5---
2024-02-28 03:30 amENE 21.4 25.3----30.01- 75.0- 70.3---
2024-02-28 03:20 am E 19.4 25.3----30.01- 75.0- 70.2---
2024-02-28 03:10 am E 21.4 25.3----30.02- 75.0- 69.8---
2024-02-28 03:00 amENE 19.4 25.3----30.02-0.06 75.2- 70.2---
2024-02-28 02:50 am E 19.4 23.3----30.03- 75.2- 69.8---
2024-02-28 02:40 am E 19.4 25.3----30.03- 75.2- 69.4---
2024-02-28 02:30 am E 19.4 25.3----30.04- 75.4- 69.1---
2024-02-28 02:20 am E 21.4 27.2----30.04- 75.2- 69.3---
2024-02-28 02:10 am E 19.4 25.3----30.04- 75.2- 69.3---
2024-02-28 02:00 am E 19.4 25.3----30.04-0.03 75.2- 69.3---
2024-02-28 01:50 am E 19.4 25.3----30.05- 75.4- 69.3---
2024-02-28 01:40 am E 21.4 27.2----30.06- 75.4- 68.7---
2024-02-28 01:30 am E 21.4 27.2----30.06- 75.4- 68.7---
2024-02-28 01:20 am E 19.4 25.3----30.06- 75.6- 69.3---
2024-02-28 01:10 am E 21.4 27.2----30.06- 75.6- 69.1---
2024-02-28 01:00 am E 21.4 29.1----30.06-0.02 75.6- 68.9---
2024-02-28 12:50 am E 21.4 27.2----30.06- 75.4- 69.3---
2024-02-28 12:40 amENE 21.4 27.2----30.06- 75.4- 69.4---
2024-02-28 12:30 amENE 21.4 27.2----30.07- 75.4- 69.8---
2024-02-28 12:20 amENE 21.4 25.3----30.07- 75.4- 70.0---
2024-02-28 12:10 amENE 21.4 25.3----30.07- 75.6- 70.2---
2024-02-28 12:00 amENE 21.4 27.2----30.08+0.00 75.4- 70.2---
2024-02-27 11:50 pm E 21.4 27.2----30.07- 75.4- 69.8---
2024-02-27 11:40 pm E 21.4 27.2----30.07- 75.4- 70.0---
2024-02-27 11:30 pm E 21.4 27.2----30.07- 75.4- 70.3---
2024-02-27 11:20 pm E 23.3 29.1----30.07- 75.4- 69.8---
2024-02-27 11:10 pm E 21.4 27.2----30.08- 75.2- 70.0---
2024-02-27 11:00 pm E 21.4 27.2----30.07+0.02 75.2- 70.2---
2024-02-27 10:50 pm E 21.4 29.1----30.07- 75.2- 70.3---
2024-02-27 10:40 pmENE 23.3 29.1----30.08- 75.0- 70.3---
2024-02-27 10:30 pmENE 21.4 29.1----30.08- 75.0- 70.7---
2024-02-27 10:20 pm E 21.4 25.3----30.08- 75.0- 70.9---
2024-02-27 10:10 pm E 21.4 27.2----30.08- 74.8- 70.5---
2024-02-27 10:00 pm E 19.4 25.3----30.08+0.05 75.0- 70.9---
2024-02-27 09:50 pmENE 21.4 27.2----30.08- 75.0- 70.9---